Timeline UpdatesTrip UpdatesNews PostsPvt PostsTravel TipsAdmin PostsConv PostsFollowed PostsChat RequestsBlog PostsPNR Posts

Disclaimer
Search
 
 
Thu Aug 28, 2014 00:27:16 ISTHomeTrainsΣChainsAtlasPNRForumGalleryNewsFAQTripsMembersLoginFeedback
No Recent News for this Train
Other Trains in the News **new
Latest...
Will stop at Ramanagaram, according to IRCTC
Tue Mar 11, 2014 (07:35PM)
⇐ Return Journey: Train# 16209

16210/Mysore-Ajmer Express

Mar 11 2014 (10:33AM)
Change Departure Station:
Change Arrival Station:
Post a Train Travel TipPost a Train Travel Tip **new
Post a Comment/Question/Picture/VideoPost a Comment/Question/Picture/Video
Pantry/Catering
✓ Pantry Car Avbl
✓ Catering Avbl
RSA - Rake Sharing
16217/16218 Mysore-Shirdi Express
Rake/Coach Composition
LOCO-SLR-GEN-GEN-A1-A2-B1-B2-S1-S2-S3-PC-S4-S5-S6-S7-S8-S9-S10-S11-S12-S13-GEN-SLR; Total 23 coaches
Loco
UBL WDP-4/4B No Loco Change at Pune / Ahmedabad
News    PNR    Forum    Time-Table    Availability    Fare Chart    Map    Arr/Dep History    Trips    Gallery    ΣChains    X/O    Timeline    
Travel Time: 6h 49m    8 halts    Distance: 395 km    Avg Speed: 57 km/hr
Type: Mail/Express
Zone: SWR/South Western
Departs @ 21:55 (Avg 7m late)
Platform# 8
  T T  
Bangalore City Junction/SBC 
Arrives @ 04:44 +1 night (Avg 34m late)
Platform# ???
   W F 
Haveri/HVR 

8 halts. 54 intermediate Stations between Bangalore City Junction and Haveri

Show ALL intermediate Stations  Show Old Time-Table

#CodeStation NameX/OArrivesAvgDepartsAvgHaltPFDay#KmSpeedElevZoneAddress
1MYSMysore Junction (6)  -18:00+351-137.254760mSWRTel No 0821-2521751.URL: www.mysorerailwaystation.in, Karnataka
2MYAMandya (3)  18:49+2418:50+251m--1-93.053672mSWRMandya, Karnataka
3RMGMRamanagaram (4)X  19:45+3419:46+331m21-44.424692mSWRRamanagaram, Karnataka
4SBC»Bangalore City Junction (10)»O  21:35+821:55+720m810.034903mSWRBengaluru-560023, Karnataka
5YPRYesvantpur Junction (6)22:05+922:07+92m--15.669919mSWRBengaluru 560022, Karnataka
6TKTumkur (3)  23:03+923:05+92m1169.571823mSWRTumkur, Karnataka
7TTRTiptur (4)  00:05+1400:06+151m22140.639860mSWRTiptur, Karnataka
8ASKArsikere Junction (3)  00:45+400:50+85m--2166.156816mSWRArsikere, Karnataka
9RRBBirur Junction (3)  01:38+401:40+62m--2211.164802mSWRBirur, Karnataka
10DVGDavangere (2)  03:27+3203:30+313m--2326.043598mSWRDavanagere, Karnataka
11HRRHarihar (3)  03:48+3003:50+302m--2338.958553mSWRHarihar, Karnataka
12RNRRanibennur (3)  04:14+3004:15+301m--2362.267583mSWRRanebennur, Karnataka
13HVR•Haveri (3)•  04:44+3404:45+341m--2394.845558mSWRHaveri, Karnataka
14UBLHubli Junction (5)  06:25+1706:35+2410m12469.952640mSWRHubli - 580020, Karnataka
15DWRDharwad (4)  06:58+2907:00+292m12489.951737mSWRDharwad 580001, Karnataka
16LDLonda Junction (3)  08:23+2508:25+262m22560.444643mSWRLonda, Karnataka
17BGMBelgaum (3)X  09:35+2209:40+275m12611.746752mSWRBelgaum 590001, Karnataka
18MRJMiraj Junction (6)  12:40+412:45+165m12749.137554mCRMiraj 416410, Maharashtra
19SLISangli (3)  12:57+1813:00+183m12756.469559mCRSangli, Maharashtra
20KRDKarad (3)  13:59+1914:00+211m12824.359597mCRDist- Satara., Maharashtra
21STRSatara (3)  15:00+2515:03+273m12882.940637mCRSatara, Maharashtra
22PUNEPune Junction (6)  18:40+218:50+710m321028.755556mCRPune 411001, Maharashtra
23LNLLonavala (3)  19:59+320:00+81m221092.335623mCRLonavala 410401, Maharashtra
24KJTKarjat Junction (4)X  20:49+1120:50+131m221121.05657mCRKarjat, Maharashtra
25KYNKalyan Junction (8)  21:40+1521:45+125m721167.84510mCRKalyan 421301, Maharashtra
26BIRDBhiwandi Road (4)  22:09+1422:10+151m421185.84126mCRBhiwandi, Maharashtra
27BSRVasai Road (7)  22:50+1522:55+155m621213.1647mWRVasai 401202, Maharashtra
28VAPIVapi (3)X  00:49+1500:50+161m--31334.16327mWRVapi, Gujarat
29BLValsad (3)X  01:15+1501:16+201m231360.44615mWRValsad, Gujarat
30STSurat (4)  02:45+202:55+110m131429.17919mWRSurat 395001, Gujarat
31BHBharuch Junction (5)  03:40+803:41+101m331488.47419mWRBharuch, Gujarat
32BRCVadodara Junction (7)  04:38+1904:55+1817m231558.96536mWRVadodara 390005, Gujarat
33ANNDAnand Junction (6)  05:28+505:29+51m--31594.66944mWRAnand, Gujarat
34NDNadiad Junction (4)X  05:45+1405:46+161m--31613.14637mWRNadiad, Gujarat
35ADIAhmedabad Junction (12)  06:45+3407:05+4020m331658.73351mWRAhmedabad, Gujarat
36MSHMahesana Junction (6)  09:19+1409:20+161m231731.75095mWRMehsana, Gujarat
37PNUPalanpur Junction (5)  10:38+910:40+162m131796.749216mWRPalanpur, Gujarat
38ABRAbu Road (3)XO  11:45+2011:55+2210m231849.366264mNWRSirohi Dist, Rajasthan
39SOHSirohi Road (2)  12:35+3312:36+371m--31893.265369mNWRPindwara, Rajasthan
40FAFalna (2)  13:27+3913:28+401m131948.264282mNWRFalna, Rajasthan
41MJMarwar Junction (4)  14:30+3914:32+432m--32014.766267mNWRMarwar Junction, Rajasthan
42SODSojat Road (2)  14:51+4614:52+481m--32035.645295mNWRSojat Road, Rajasthan
43BERBeawar (2)  16:20+3016:21+331m--32102.145447mNWRBeawar, Rajasthan
44AIIAjmer Junction (5)  17:30+16-332154.3-464mNWRPin: 305001, Rajasthan
Scroll to Top
Scroll to Bottom